#datetime,building,power
2024-03-15T00:00:00,axn,40.96
2024-03-15T00:01:00,axn,39.78
2024-03-15T00:02:00,axn,34.97
2024-03-15T00:03:00,axn,35.15
2024-03-15T00:04:00,axn,35.48
2024-03-15T00:05:00,axn,33.86
2024-03-15T00:06:00,axn,33.66
2024-03-15T00:07:00,axn,34.03
2024-03-15T00:08:00,axn,34.00
2024-03-15T00:09:00,axn,34.01
2024-03-15T00:10:00,axn,33.73
2024-03-15T00:11:00,axn,30.83
2024-03-15T00:12:00,axn,28.09
2024-03-15T00:13:00,axn,28.41
2024-03-15T00:14:00,axn,28.02
2024-03-15T00:15:00,axn,28.10
2024-03-15T00:16:00,axn,28.06
2024-03-15T00:17:00,axn,28.07
2024-03-15T00:18:00,axn,27.98
2024-03-15T00:19:00,axn,28.01
2024-03-15T00:20:00,axn,28.01
2024-03-15T00:21:00,axn,28.14
2024-03-15T00:22:00,axn,28.04
2024-03-15T00:23:00,axn,28.03
2024-03-15T00:24:00,axn,28.04
2024-03-15T00:25:00,axn,28.07
2024-03-15T00:26:00,axn,28.03
2024-03-15T00:27:00,axn,28.03
2024-03-15T00:28:00,axn,27.90
2024-03-15T00:29:00,axn,27.99
2024-03-15T00:30:00,axn,28.05
2024-03-15T00:31:00,axn,27.92
2024-03-15T00:32:00,axn,28.51
2024-03-15T00:33:00,axn,28.23
2024-03-15T00:34:00,axn,28.14
2024-03-15T00:35:00,axn,28.11
2024-03-15T00:36:00,axn,28.19
2024-03-15T00:37:00,axn,28.68
2024-03-15T00:38:00,axn,28.16
2024-03-15T00:39:00,axn,28.18
2024-03-15T00:40:00,axn,28.36
2024-03-15T00:41:00,axn,28.22
2024-03-15T00:42:00,axn,27.69
2024-03-15T00:43:00,axn,27.86
2024-03-15T00:44:00,axn,27.90
2024-03-15T00:45:00,axn,27.94
2024-03-15T00:46:00,axn,27.83
2024-03-15T00:47:00,axn,27.88
2024-03-15T00:48:00,axn,27.87
2024-03-15T00:49:00,axn,28.01
2024-03-15T00:50:00,axn,27.78
2024-03-15T00:51:00,axn,27.70
2024-03-15T00:52:00,axn,27.74
2024-03-15T00:53:00,axn,28.00
2024-03-15T00:54:00,axn,27.87
2024-03-15T00:55:00,axn,28.10
2024-03-15T00:56:00,axn,27.93
2024-03-15T00:57:00,axn,27.99
2024-03-15T00:58:00,axn,28.48
2024-03-15T00:59:00,axn,28.13
2024-03-15T01:00:00,axn,28.43
2024-03-15T01:01:00,axn,28.11
2024-03-15T01:02:00,axn,28.49
2024-03-15T01:03:00,axn,28.03
2024-03-15T01:04:00,axn,28.21
2024-03-15T01:05:00,axn,28.07
2024-03-15T01:06:00,axn,27.88
2024-03-15T01:07:00,axn,27.91
2024-03-15T01:08:00,axn,27.90
2024-03-15T01:09:00,axn,28.18
2024-03-15T01:10:00,axn,28.08
2024-03-15T01:11:00,axn,28.12
2024-03-15T01:12:00,axn,27.80
2024-03-15T01:13:00,axn,27.96
2024-03-15T01:14:00,axn,27.91
2024-03-15T01:15:00,axn,27.96
2024-03-15T01:16:00,axn,27.83
2024-03-15T01:17:00,axn,27.84
2024-03-15T01:18:00,axn,27.91
2024-03-15T01:19:00,axn,27.88
2024-03-15T01:20:00,axn,27.84
2024-03-15T01:21:00,axn,27.86
2024-03-15T01:22:00,axn,27.96
2024-03-15T01:23:00,axn,27.76
2024-03-15T01:24:00,axn,27.88
2024-03-15T01:25:00,axn,27.85
2024-03-15T01:26:00,axn,27.91
2024-03-15T01:27:00,axn,28.00
2024-03-15T01:28:00,axn,27.90
2024-03-15T01:29:00,axn,27.98
2024-03-15T01:30:00,axn,27.92
2024-03-15T01:31:00,axn,27.82
2024-03-15T01:32:00,axn,28.14
2024-03-15T01:33:00,axn,28.09
2024-03-15T01:34:00,axn,28.06
2024-03-15T01:35:00,axn,28.05
2024-03-15T01:36:00,axn,28.02
2024-03-15T01:37:00,axn,28.08
2024-03-15T01:38:00,axn,28.11
2024-03-15T01:39:00,axn,28.15
2024-03-15T01:40:00,axn,28.35
2024-03-15T01:41:00,axn,28.15
2024-03-15T01:42:00,axn,28.16
2024-03-15T01:43:00,axn,28.01
2024-03-15T01:44:00,axn,28.90
2024-03-15T01:45:00,axn,28.19
2024-03-15T01:46:00,axn,28.40
2024-03-15T01:47:00,axn,28.25
2024-03-15T01:48:00,axn,28.38
2024-03-15T01:49:00,axn,28.43
2024-03-15T01:50:00,axn,28.55
2024-03-15T01:51:00,axn,28.03
2024-03-15T01:52:00,axn,28.30
2024-03-15T01:53:00,axn,28.22
2024-03-15T01:54:00,axn,28.61
2024-03-15T01:55:00,axn,28.07
2024-03-15T01:56:00,axn,27.96
2024-03-15T01:57:00,axn,27.93
2024-03-15T01:58:00,axn,27.92
2024-03-15T01:59:00,axn,28.05
2024-03-15T02:00:00,axn,28.10
2024-03-15T02:01:00,axn,28.20
2024-03-15T02:02:00,axn,28.21
2024-03-15T02:03:00,axn,28.19
2024-03-15T02:04:00,axn,28.32
2024-03-15T02:05:00,axn,28.60
2024-03-15T02:06:00,axn,28.18
2024-03-15T02:07:00,axn,31.09
2024-03-15T02:08:00,axn,28.22
2024-03-15T02:09:00,axn,28.24
2024-03-15T02:10:00,axn,28.51
2024-03-15T02:11:00,axn,28.10
2024-03-15T02:12:00,axn,28.08
2024-03-15T02:13:00,axn,33.51
2024-03-15T02:14:00,axn,28.29
2024-03-15T02:15:00,axn,28.26
2024-03-15T02:16:00,axn,28.21
2024-03-15T02:17:00,axn,28.39
2024-03-15T02:18:00,axn,28.39
2024-03-15T02:19:00,axn,28.36
2024-03-15T02:20:00,axn,28.43
2024-03-15T02:21:00,axn,29.83
2024-03-15T02:22:00,axn,28.70
2024-03-15T02:23:00,axn,28.41
2024-03-15T02:24:00,axn,28.25
2024-03-15T02:25:00,axn,28.27
2024-03-15T02:26:00,axn,28.30
2024-03-15T02:27:00,axn,28.29
2024-03-15T02:28:00,axn,28.32
2024-03-15T02:29:00,axn,28.36
2024-03-15T02:30:00,axn,28.29
2024-03-15T02:31:00,axn,28.28
2024-03-15T02:32:00,axn,28.37
2024-03-15T02:33:00,axn,28.03
2024-03-15T02:34:00,axn,28.05
2024-03-15T02:35:00,axn,27.97
2024-03-15T02:36:00,axn,28.39
2024-03-15T02:37:00,axn,28.09
2024-03-15T02:38:00,axn,28.23
2024-03-15T02:39:00,axn,27.48
2024-03-15T02:40:00,axn,27.31
2024-03-15T02:41:00,axn,27.34
2024-03-15T02:42:00,axn,27.34
2024-03-15T02:43:00,axn,27.28
2024-03-15T02:44:00,axn,27.37
2024-03-15T02:45:00,axn,27.59
2024-03-15T02:46:00,axn,27.43
2024-03-15T02:47:00,axn,27.40
2024-03-15T02:48:00,axn,27.36
2024-03-15T02:49:00,axn,27.34
2024-03-15T02:50:00,axn,27.39
2024-03-15T02:51:00,axn,27.47
2024-03-15T02:52:00,axn,27.77
2024-03-15T02:53:00,axn,27.64
2024-03-15T02:54:00,axn,27.51
2024-03-15T02:55:00,axn,27.34
2024-03-15T02:56:00,axn,27.94
2024-03-15T02:57:00,axn,27.35
2024-03-15T02:58:00,axn,27.36
2024-03-15T02:59:00,axn,27.40
2024-03-15T03:00:00,axn,27.51
2024-03-15T03:01:00,axn,27.56
2024-03-15T03:02:00,axn,27.90
2024-03-15T03:03:00,axn,27.71
2024-03-15T03:04:00,axn,27.29
2024-03-15T03:05:00,axn,27.29
2024-03-15T03:06:00,axn,27.26
2024-03-15T03:07:00,axn,27.36
2024-03-15T03:08:00,axn,28.61
2024-03-15T03:09:00,axn,27.63
2024-03-15T03:10:00,axn,27.63
2024-03-15T03:11:00,axn,27.68
2024-03-15T03:12:00,axn,27.58
2024-03-15T03:13:00,axn,27.62
2024-03-15T03:14:00,axn,27.79
2024-03-15T03:15:00,axn,27.65
2024-03-15T03:16:00,axn,27.61
2024-03-15T03:17:00,axn,27.66
2024-03-15T03:18:00,axn,27.60
2024-03-15T03:19:00,axn,27.98
2024-03-15T03:20:00,axn,27.59
2024-03-15T03:21:00,axn,27.59
2024-03-15T03:22:00,axn,27.93
2024-03-15T03:23:00,axn,27.92
2024-03-15T03:24:00,axn,27.56
2024-03-15T03:25:00,axn,27.80
2024-03-15T03:26:00,axn,27.81
2024-03-15T03:27:00,axn,27.88
2024-03-15T03:28:00,axn,27.63
2024-03-15T03:29:00,axn,27.34
2024-03-15T03:30:00,axn,27.44
2024-03-15T03:31:00,axn,27.53
2024-03-15T03:32:00,axn,27.19
2024-03-15T03:33:00,axn,27.39
2024-03-15T03:34:00,axn,27.49
2024-03-15T03:35:00,axn,27.13
2024-03-15T03:36:00,axn,27.52
2024-03-15T03:37:00,axn,27.47
2024-03-15T03:38:00,axn,27.61
2024-03-15T03:39:00,axn,27.77
2024-03-15T03:40:00,axn,27.58
2024-03-15T03:41:00,axn,27.46
2024-03-15T03:42:00,axn,27.43
2024-03-15T03:43:00,axn,27.52
2024-03-15T03:44:00,axn,27.65
2024-03-15T03:45:00,axn,27.72
2024-03-15T03:46:00,axn,27.64
2024-03-15T03:47:00,axn,27.67
2024-03-15T03:48:00,axn,27.72
2024-03-15T03:49:00,axn,27.61
2024-03-15T03:50:00,axn,27.76
2024-03-15T03:51:00,axn,27.78
2024-03-15T03:52:00,axn,27.65
2024-03-15T03:53:00,axn,27.67
2024-03-15T03:54:00,axn,28.35
2024-03-15T03:55:00,axn,27.94
2024-03-15T03:56:00,axn,27.96
2024-03-15T03:57:00,axn,27.55
2024-03-15T03:58:00,axn,44.72
2024-03-15T03:59:00,axn,42.25
2024-03-15T04:00:00,axn,42.27
2024-03-15T04:01:00,axn,41.94
2024-03-15T04:02:00,axn,41.69
2024-03-15T04:03:00,axn,41.61
2024-03-15T04:04:00,axn,41.40
2024-03-15T04:05:00,axn,27.32
2024-03-15T04:06:00,axn,27.83
2024-03-15T04:07:00,axn,27.49
2024-03-15T04:08:00,axn,27.54
2024-03-15T04:09:00,axn,27.78
2024-03-15T04:10:00,axn,27.55
2024-03-15T04:11:00,axn,27.48
2024-03-15T04:12:00,axn,27.53
2024-03-15T04:13:00,axn,28.19
2024-03-15T04:14:00,axn,27.76
2024-03-15T04:15:00,axn,27.74
2024-03-15T04:16:00,axn,27.77
2024-03-15T04:17:00,axn,27.63
2024-03-15T04:18:00,axn,28.23
2024-03-15T04:19:00,axn,27.61
2024-03-15T04:20:00,axn,27.75
2024-03-15T04:21:00,axn,27.52
2024-03-15T04:22:00,axn,27.53
2024-03-15T04:23:00,axn,27.49
2024-03-15T04:24:00,axn,27.30
2024-03-15T04:25:00,axn,27.31
2024-03-15T04:26:00,axn,27.32
2024-03-15T04:27:00,axn,27.66
2024-03-15T04:28:00,axn,27.50
2024-03-15T04:29:00,axn,27.05
2024-03-15T04:30:00,axn,27.29
2024-03-15T04:31:00,axn,27.64
2024-03-15T04:32:00,axn,27.65
2024-03-15T04:33:00,axn,27.60
2024-03-15T04:34:00,axn,27.53
2024-03-15T04:35:00,axn,27.86
2024-03-15T04:36:00,axn,27.58
2024-03-15T04:37:00,axn,27.47
2024-03-15T04:38:00,axn,27.54
2024-03-15T04:39:00,axn,27.46
2024-03-15T04:40:00,axn,27.84
2024-03-15T04:41:00,axn,28.01
2024-03-15T04:42:00,axn,28.53
2024-03-15T04:43:00,axn,33.83
2024-03-15T04:44:00,axn,33.95
2024-03-15T04:45:00,axn,33.77
2024-03-15T04:46:00,axn,33.74
2024-03-15T04:47:00,axn,29.87
2024-03-15T04:48:00,axn,29.72
2024-03-15T04:49:00,axn,47.13
2024-03-15T04:50:00,axn,29.69
2024-03-15T04:51:00,axn,29.56
2024-03-15T04:52:00,axn,29.79
2024-03-15T04:53:00,axn,29.52
2024-03-15T04:54:00,axn,35.39
2024-03-15T04:55:00,axn,35.22
2024-03-15T04:56:00,axn,35.62
2024-03-15T04:57:00,axn,35.45
2024-03-15T04:58:00,axn,29.20
2024-03-15T04:59:00,axn,29.47
2024-03-15T05:00:00,axn,29.97
2024-03-15T05:01:00,axn,27.05
2024-03-15T05:02:00,axn,29.55
2024-03-15T05:03:00,axn,39.04
2024-03-15T05:04:00,axn,39.21
2024-03-15T05:05:00,axn,38.41
2024-03-15T05:06:00,axn,36.34
2024-03-15T05:07:00,axn,36.05
2024-03-15T05:08:00,axn,35.94
2024-03-15T05:09:00,axn,30.87
2024-03-15T05:10:00,axn,31.50
2024-03-15T05:11:00,axn,31.61
2024-03-15T05:12:00,axn,31.42
2024-03-15T05:13:00,axn,31.16
2024-03-15T05:14:00,axn,31.97
2024-03-15T05:15:00,axn,32.23
2024-03-15T05:16:00,axn,32.24
2024-03-15T05:17:00,axn,31.48
2024-03-15T05:18:00,axn,31.43
2024-03-15T05:19:00,axn,33.02
2024-03-15T05:20:00,axn,33.01
2024-03-15T05:21:00,axn,33.17
2024-03-15T05:22:00,axn,33.33
2024-03-15T05:23:00,axn,33.46
2024-03-15T05:24:00,axn,33.39
2024-03-15T05:25:00,axn,37.75
2024-03-15T05:26:00,axn,37.91
2024-03-15T05:27:00,axn,33.51
2024-03-15T05:28:00,axn,36.45
2024-03-15T05:29:00,axn,33.62
2024-03-15T05:30:00,axn,33.69
2024-03-15T05:31:00,axn,34.05
2024-03-15T05:32:00,axn,34.16
2024-03-15T05:33:00,axn,34.06
2024-03-15T05:34:00,axn,34.38
2024-03-15T05:35:00,axn,34.73
2024-03-15T05:36:00,axn,34.97
2024-03-15T05:37:00,axn,34.55
2024-03-15T05:38:00,axn,50.03
2024-03-15T05:39:00,axn,35.07
2024-03-15T05:40:00,axn,35.05
2024-03-15T05:41:00,axn,51.61
2024-03-15T05:42:00,axn,34.87
2024-03-15T05:43:00,axn,34.90
2024-03-15T05:44:00,axn,34.48
2024-03-15T05:45:00,axn,34.08
2024-03-15T05:46:00,axn,34.29
2024-03-15T05:47:00,axn,34.88
2024-03-15T05:48:00,axn,34.25
2024-03-15T05:49:00,axn,34.11
2024-03-15T05:50:00,axn,34.73
2024-03-15T05:51:00,axn,34.75
2024-03-15T05:52:00,axn,52.50
2024-03-15T05:53:00,axn,35.05
2024-03-15T05:54:00,axn,39.32
2024-03-15T05:55:00,axn,35.08
2024-03-15T05:56:00,axn,34.58
2024-03-15T05:57:00,axn,34.15
2024-03-15T05:58:00,axn,35.04
2024-03-15T05:59:00,axn,35.77
2024-03-15T06:00:00,axn,34.62
2024-03-15T06:01:00,axn,34.27
2024-03-15T06:02:00,axn,44.51
2024-03-15T06:03:00,axn,44.96
2024-03-15T06:04:00,axn,45.01
2024-03-15T06:05:00,axn,44.62
2024-03-15T06:06:00,axn,39.04
2024-03-15T06:07:00,axn,38.83
2024-03-15T06:08:00,axn,38.68
2024-03-15T06:09:00,axn,38.17
2024-03-15T06:10:00,axn,38.33
2024-03-15T06:11:00,axn,38.58
2024-03-15T06:12:00,axn,35.58
2024-03-15T06:13:00,axn,35.16
2024-03-15T06:14:00,axn,35.83
2024-03-15T06:15:00,axn,36.12
2024-03-15T06:16:00,axn,35.33
2024-03-15T06:17:00,axn,35.07
2024-03-15T06:18:00,axn,35.19
2024-03-15T06:19:00,axn,35.28
2024-03-15T06:20:00,axn,35.37
2024-03-15T06:21:00,axn,34.40
2024-03-15T06:22:00,axn,34.61
2024-03-15T06:23:00,axn,35.88
2024-03-15T06:24:00,axn,35.17
2024-03-15T06:25:00,axn,33.36
2024-03-15T06:26:00,axn,34.02
2024-03-15T06:27:00,axn,38.42
2024-03-15T06:28:00,axn,34.06
2024-03-15T06:29:00,axn,33.88
2024-03-15T06:30:00,axn,33.94
2024-03-15T06:31:00,axn,33.78
2024-03-15T06:32:00,axn,33.40
2024-03-15T06:33:00,axn,33.36
2024-03-15T06:34:00,axn,33.23
2024-03-15T06:35:00,axn,34.13
2024-03-15T06:36:00,axn,43.76
2024-03-15T06:37:00,axn,34.83
2024-03-15T06:38:00,axn,33.44
2024-03-15T06:39:00,axn,34.23
2024-03-15T06:40:00,axn,33.90
2024-03-15T06:41:00,axn,35.64
2024-03-15T06:42:00,axn,34.93
2024-03-15T06:43:00,axn,34.93
2024-03-15T06:44:00,axn,34.80
2024-03-15T06:45:00,axn,33.90
2024-03-15T06:46:00,axn,34.98
2024-03-15T06:47:00,axn,35.35
2024-03-15T06:48:00,axn,34.05
2024-03-15T06:49:00,axn,33.13
2024-03-15T06:50:00,axn,44.44
2024-03-15T06:51:00,axn,33.73
2024-03-15T06:52:00,axn,35.23
2024-03-15T06:53:00,axn,39.15
2024-03-15T06:54:00,axn,34.99
2024-03-15T06:55:00,axn,34.83
2024-03-15T06:56:00,axn,34.17
2024-03-15T06:57:00,axn,33.83
2024-03-15T06:58:00,axn,33.99
2024-03-15T06:59:00,axn,34.40
2024-03-15T07:00:00,axn,34.09
2024-03-15T07:01:00,axn,34.69
2024-03-15T07:02:00,axn,35.72
2024-03-15T07:03:00,axn,37.05
2024-03-15T07:04:00,axn,36.95
2024-03-15T07:05:00,axn,34.38
2024-03-15T07:06:00,axn,34.35
2024-03-15T07:07:00,axn,34.29
2024-03-15T07:08:00,axn,33.99
2024-03-15T07:09:00,axn,33.95
2024-03-15T07:10:00,axn,34.14
2024-03-15T07:11:00,axn,34.36
2024-03-15T07:12:00,axn,35.02
2024-03-15T07:13:00,axn,35.66
2024-03-15T07:14:00,axn,35.34
2024-03-15T07:15:00,axn,35.83
2024-03-15T07:16:00,axn,35.88
2024-03-15T07:17:00,axn,35.91
2024-03-15T07:18:00,axn,36.32
2024-03-15T07:19:00,axn,36.72
2024-03-15T07:20:00,axn,36.46
2024-03-15T07:21:00,axn,36.91
2024-03-15T07:22:00,axn,36.56
2024-03-15T07:23:00,axn,41.37
2024-03-15T07:24:00,axn,41.76
2024-03-15T07:25:00,axn,37.69
2024-03-15T07:26:00,axn,38.24
2024-03-15T07:27:00,axn,39.19
2024-03-15T07:28:00,axn,38.47
2024-03-15T07:29:00,axn,38.64
2024-03-15T07:30:00,axn,38.77
2024-03-15T07:31:00,axn,38.87
2024-03-15T07:32:00,axn,39.91
2024-03-15T07:33:00,axn,39.51
2024-03-15T07:34:00,axn,39.63
2024-03-15T07:35:00,axn,39.52
2024-03-15T07:36:00,axn,39.46
2024-03-15T07:37:00,axn,39.33
2024-03-15T07:38:00,axn,39.29
2024-03-15T07:39:00,axn,39.31
2024-03-15T07:40:00,axn,39.25
2024-03-15T07:41:00,axn,39.24
2024-03-15T07:42:00,axn,39.09
2024-03-15T07:43:00,axn,39.23
2024-03-15T07:44:00,axn,38.99
2024-03-15T07:45:00,axn,39.13
2024-03-15T07:46:00,axn,39.09
2024-03-15T07:47:00,axn,39.13
2024-03-15T07:48:00,axn,39.18
2024-03-15T07:49:00,axn,39.27
2024-03-15T07:50:00,axn,38.97
2024-03-15T07:51:00,axn,38.74
2024-03-15T07:52:00,axn,38.96
2024-03-15T07:53:00,axn,39.06
2024-03-15T07:54:00,axn,43.76
2024-03-15T07:55:00,axn,39.27
2024-03-15T07:56:00,axn,39.23
2024-03-15T07:57:00,axn,39.29
2024-03-15T07:58:00,axn,39.70
2024-03-15T07:59:00,axn,39.00
2024-03-15T08:00:00,axn,39.46
2024-03-15T08:01:00,axn,41.09
2024-03-15T08:02:00,axn,44.84
2024-03-15T08:03:00,axn,44.56
2024-03-15T08:04:00,axn,44.89
2024-03-15T08:05:00,axn,44.68
2024-03-15T08:06:00,axn,45.23
2024-03-15T08:07:00,axn,44.88
2024-03-15T08:08:00,axn,45.14
2024-03-15T08:09:00,axn,44.89
2024-03-15T08:10:00,axn,44.58
2024-03-15T08:11:00,axn,44.70
2024-03-15T08:12:00,axn,44.75
2024-03-15T08:13:00,axn,45.08
2024-03-15T08:14:00,axn,44.92
2024-03-15T08:15:00,axn,45.03
2024-03-15T08:16:00,axn,44.98
2024-03-15T08:17:00,axn,44.84
2024-03-15T08:18:00,axn,44.73
2024-03-15T08:19:00,axn,44.95
2024-03-15T08:20:00,axn,44.83
2024-03-15T08:21:00,axn,44.97
2024-03-15T08:22:00,axn,45.09
2024-03-15T08:23:00,axn,45.02
2024-03-15T08:24:00,axn,49.63
2024-03-15T08:25:00,axn,47.72
2024-03-15T08:26:00,axn,46.13
2024-03-15T08:27:00,axn,46.25
2024-03-15T08:28:00,axn,45.79
2024-03-15T08:29:00,axn,45.71
2024-03-15T08:30:00,axn,45.87
2024-03-15T08:31:00,axn,46.08
2024-03-15T08:32:00,axn,45.83
2024-03-15T08:33:00,axn,45.50
2024-03-15T08:34:00,axn,45.50
2024-03-15T08:35:00,axn,45.35
2024-03-15T08:36:00,axn,45.65
2024-03-15T08:37:00,axn,45.88
2024-03-15T08:38:00,axn,45.69
2024-03-15T08:39:00,axn,45.63
2024-03-15T08:40:00,axn,45.84
2024-03-15T08:41:00,axn,45.70
2024-03-15T08:42:00,axn,45.76
2024-03-15T08:43:00,axn,46.31
2024-03-15T08:44:00,axn,46.47
2024-03-15T08:45:00,axn,46.41
2024-03-15T08:46:00,axn,46.39
2024-03-15T08:47:00,axn,46.25
2024-03-15T08:48:00,axn,46.55
2024-03-15T08:49:00,axn,48.50
2024-03-15T08:50:00,axn,49.50
2024-03-15T08:51:00,axn,48.39
2024-03-15T08:52:00,axn,46.09
2024-03-15T08:53:00,axn,46.98
2024-03-15T08:54:00,axn,46.57
2024-03-15T08:55:00,axn,51.06
2024-03-15T08:56:00,axn,47.45
2024-03-15T08:57:00,axn,47.29
2024-03-15T08:58:00,axn,48.33
2024-03-15T08:59:00,axn,47.69
2024-03-15T09:00:00,axn,46.23
2024-03-15T09:01:00,axn,47.05
2024-03-15T09:02:00,axn,48.59
2024-03-15T09:03:00,axn,46.67
2024-03-15T09:04:00,axn,47.64
2024-03-15T09:05:00,axn,47.66
2024-03-15T09:06:00,axn,49.86
2024-03-15T09:07:00,axn,47.59
2024-03-15T09:08:00,axn,47.60
2024-03-15T09:09:00,axn,47.74
2024-03-15T09:10:00,axn,47.83
2024-03-15T09:11:00,axn,46.87
2024-03-15T09:12:00,axn,46.77
2024-03-15T09:13:00,axn,47.10
2024-03-15T09:14:00,axn,47.17
2024-03-15T09:15:00,axn,49.53
2024-03-15T09:16:00,axn,46.79
2024-03-15T09:17:00,axn,50.10
2024-03-15T09:18:00,axn,47.28
2024-03-15T09:19:00,axn,62.88
2024-03-15T09:20:00,axn,64.19
2024-03-15T09:21:00,axn,61.39
2024-03-15T09:22:00,axn,63.34
2024-03-15T09:23:00,axn,62.43
2024-03-15T09:24:00,axn,62.81
2024-03-15T09:25:00,axn,67.47
2024-03-15T09:26:00,axn,52.18
2024-03-15T09:27:00,axn,49.19
2024-03-15T09:28:00,axn,47.86
2024-03-15T09:29:00,axn,47.27
2024-03-15T09:30:00,axn,47.62
2024-03-15T09:31:00,axn,50.72
2024-03-15T09:32:00,axn,49.56
2024-03-15T09:33:00,axn,47.80
2024-03-15T09:34:00,axn,48.86
2024-03-15T09:35:00,axn,47.86
2024-03-15T09:36:00,axn,47.16
2024-03-15T09:37:00,axn,49.39
2024-03-15T09:38:00,axn,49.35
2024-03-15T09:39:00,axn,49.71
2024-03-15T09:40:00,axn,47.43
2024-03-15T09:41:00,axn,47.37
2024-03-15T09:42:00,axn,48.45
2024-03-15T09:43:00,axn,47.56
2024-03-15T09:44:00,axn,48.66
2024-03-15T09:45:00,axn,50.51
2024-03-15T09:46:00,axn,48.20
2024-03-15T09:47:00,axn,49.29
2024-03-15T09:48:00,axn,49.70
2024-03-15T09:49:00,axn,48.87
2024-03-15T09:50:00,axn,48.68
2024-03-15T09:51:00,axn,48.93
2024-03-15T09:52:00,axn,50.92
2024-03-15T09:53:00,axn,50.14
2024-03-15T09:54:00,axn,49.84
2024-03-15T09:55:00,axn,49.69
2024-03-15T09:56:00,axn,53.96
2024-03-15T09:57:00,axn,53.95
2024-03-15T09:58:00,axn,49.09
2024-03-15T09:59:00,axn,50.22
2024-03-15T10:00:00,axn,54.91
2024-03-15T10:01:00,axn,49.90
2024-03-15T10:02:00,axn,49.67
2024-03-15T10:03:00,axn,49.51
2024-03-15T10:04:00,axn,50.43
2024-03-15T10:05:00,axn,47.26
2024-03-15T10:06:00,axn,49.64
2024-03-15T10:07:00,axn,49.90
2024-03-15T10:08:00,axn,50.53
2024-03-15T10:09:00,axn,47.92
2024-03-15T10:10:00,axn,49.95
2024-03-15T10:11:00,axn,48.06
2024-03-15T10:12:00,axn,49.30
2024-03-15T10:13:00,axn,50.11
2024-03-15T10:14:00,axn,50.38
2024-03-15T10:15:00,axn,49.44
2024-03-15T10:16:00,axn,50.63
2024-03-15T10:17:00,axn,50.71
2024-03-15T10:18:00,axn,48.17
2024-03-15T10:19:00,axn,49.28
2024-03-15T10:20:00,axn,49.25
2024-03-15T10:21:00,axn,50.01
2024-03-15T10:22:00,axn,48.49
2024-03-15T10:23:00,axn,50.85
2024-03-15T10:24:00,axn,52.17
2024-03-15T10:25:00,axn,55.43
2024-03-15T10:26:00,axn,47.94
2024-03-15T10:27:00,axn,50.04
2024-03-15T10:28:00,axn,49.74
2024-03-15T10:29:00,axn,49.64
2024-03-15T10:30:00,axn,48.51
2024-03-15T10:31:00,axn,49.35
2024-03-15T10:32:00,axn,48.95
2024-03-15T10:33:00,axn,49.13
2024-03-15T10:34:00,axn,49.07
2024-03-15T10:35:00,axn,49.75
2024-03-15T10:36:00,axn,58.37
2024-03-15T10:37:00,axn,58.34
2024-03-15T10:38:00,axn,59.29
2024-03-15T10:39:00,axn,59.11
2024-03-15T10:40:00,axn,48.15
2024-03-15T10:41:00,axn,47.27
2024-03-15T10:42:00,axn,47.69
2024-03-15T10:43:00,axn,47.67
2024-03-15T10:44:00,axn,47.35
2024-03-15T10:45:00,axn,47.69
2024-03-15T10:46:00,axn,47.45
2024-03-15T10:47:00,axn,47.91
2024-03-15T10:48:00,axn,49.27
2024-03-15T10:49:00,axn,49.90
2024-03-15T10:50:00,axn,51.79
2024-03-15T10:51:00,axn,53.68
2024-03-15T10:52:00,axn,49.36
2024-03-15T10:53:00,axn,48.03
2024-03-15T10:54:00,axn,48.84
2024-03-15T10:55:00,axn,48.22
2024-03-15T10:56:00,axn,49.82
2024-03-15T10:57:00,axn,48.02
2024-03-15T10:58:00,axn,48.47
2024-03-15T10:59:00,axn,50.42
2024-03-15T11:00:00,axn,48.98
2024-03-15T11:01:00,axn,49.32
2024-03-15T11:02:00,axn,48.63
2024-03-15T11:03:00,axn,48.46
2024-03-15T11:04:00,axn,48.85
2024-03-15T11:05:00,axn,49.01
2024-03-15T11:06:00,axn,48.95
2024-03-15T11:07:00,axn,49.53
2024-03-15T11:08:00,axn,49.70
2024-03-15T11:09:00,axn,48.14
2024-03-15T11:10:00,axn,49.28
2024-03-15T11:11:00,axn,49.01
2024-03-15T11:12:00,axn,48.58
2024-03-15T11:13:00,axn,48.60
2024-03-15T11:14:00,axn,49.45
2024-03-15T11:15:00,axn,48.33
2024-03-15T11:16:00,axn,51.42
2024-03-15T11:17:00,axn,51.36
2024-03-15T11:18:00,axn,48.77
2024-03-15T11:19:00,axn,49.38
2024-03-15T11:20:00,axn,53.09
2024-03-15T11:21:00,axn,49.30
2024-03-15T11:22:00,axn,49.56
2024-03-15T11:23:00,axn,49.00
2024-03-15T11:24:00,axn,48.31
2024-03-15T11:25:00,axn,49.82
2024-03-15T11:26:00,axn,49.47
2024-03-15T11:27:00,axn,48.27
2024-03-15T11:28:00,axn,48.99
2024-03-15T11:29:00,axn,48.57
2024-03-15T11:30:00,axn,48.50
2024-03-15T11:31:00,axn,54.45
2024-03-15T11:32:00,axn,54.27
2024-03-15T11:33:00,axn,54.14
2024-03-15T11:34:00,axn,48.73
2024-03-15T11:35:00,axn,48.65
2024-03-15T11:36:00,axn,48.63
2024-03-15T11:37:00,axn,48.59
2024-03-15T11:38:00,axn,48.26
2024-03-15T11:39:00,axn,48.48
2024-03-15T11:40:00,axn,48.45
2024-03-15T11:41:00,axn,48.46
2024-03-15T11:42:00,axn,48.48
2024-03-15T11:43:00,axn,48.69
2024-03-15T11:44:00,axn,52.90
2024-03-15T11:45:00,axn,52.95
2024-03-15T11:46:00,axn,48.73
2024-03-15T11:47:00,axn,49.22
2024-03-15T11:48:00,axn,48.35
2024-03-15T11:49:00,axn,48.61
2024-03-15T11:50:00,axn,48.25
2024-03-15T11:51:00,axn,48.34
2024-03-15T11:52:00,axn,48.23
2024-03-15T11:53:00,axn,48.20
2024-03-15T11:54:00,axn,48.40
2024-03-15T11:55:00,axn,48.77
2024-03-15T11:56:00,axn,48.81
2024-03-15T11:57:00,axn,48.29
2024-03-15T11:58:00,axn,48.49
2024-03-15T11:59:00,axn,48.60
2024-03-15T12:00:00,axn,48.46
2024-03-15T12:01:00,axn,48.57
2024-03-15T12:02:00,axn,48.63
2024-03-15T12:03:00,axn,48.60
2024-03-15T12:04:00,axn,48.44
2024-03-15T12:05:00,axn,48.66
2024-03-15T12:06:00,axn,48.41
2024-03-15T12:07:00,axn,48.95
2024-03-15T12:08:00,axn,48.26
2024-03-15T12:09:00,axn,48.07
2024-03-15T12:10:00,axn,48.84
2024-03-15T12:11:00,axn,48.90
2024-03-15T12:12:00,axn,48.32
2024-03-15T12:13:00,axn,52.87
2024-03-15T12:14:00,axn,48.40
2024-03-15T12:15:00,axn,48.84
2024-03-15T12:16:00,axn,47.73
2024-03-15T12:17:00,axn,47.90
2024-03-15T12:18:00,axn,47.46
2024-03-15T12:19:00,axn,47.73
2024-03-15T12:20:00,axn,47.34
2024-03-15T12:21:00,axn,47.36
2024-03-15T12:22:00,axn,47.50
2024-03-15T12:23:00,axn,47.68
2024-03-15T12:24:00,axn,47.54
2024-03-15T12:25:00,axn,48.17
2024-03-15T12:26:00,axn,48.39
2024-03-15T12:27:00,axn,48.31
2024-03-15T12:28:00,axn,48.86
2024-03-15T12:29:00,axn,48.16
2024-03-15T12:30:00,axn,48.22
2024-03-15T12:31:00,axn,48.34
2024-03-15T12:32:00,axn,48.26
2024-03-15T12:33:00,axn,48.27
2024-03-15T12:34:00,axn,48.33
2024-03-15T12:35:00,axn,48.58
2024-03-15T12:36:00,axn,48.09
2024-03-15T12:37:00,axn,48.07
2024-03-15T12:38:00,axn,47.92
2024-03-15T12:39:00,axn,47.76
2024-03-15T12:40:00,axn,48.32
2024-03-15T12:41:00,axn,48.03
2024-03-15T12:42:00,axn,48.13
2024-03-15T12:43:00,axn,52.78
2024-03-15T12:44:00,axn,52.49
2024-03-15T12:45:00,axn,47.97
2024-03-15T12:46:00,axn,48.20
2024-03-15T12:47:00,axn,47.99
2024-03-15T12:48:00,axn,48.28
2024-03-15T12:49:00,axn,48.28
2024-03-15T12:50:00,axn,48.81
2024-03-15T12:51:00,axn,48.09
2024-03-15T12:52:00,axn,48.25
2024-03-15T12:53:00,axn,48.00
2024-03-15T12:54:00,axn,48.25
2024-03-15T12:55:00,axn,48.02
2024-03-15T12:56:00,axn,47.66
2024-03-15T12:57:00,axn,47.46
2024-03-15T12:58:00,axn,47.64
2024-03-15T12:59:00,axn,47.93
2024-03-15T13:00:00,axn,47.78
2024-03-15T13:01:00,axn,47.87
2024-03-15T13:02:00,axn,47.98
2024-03-15T13:03:00,axn,47.73
2024-03-15T13:04:00,axn,48.00
2024-03-15T13:05:00,axn,47.66
2024-03-15T13:06:00,axn,48.23
2024-03-15T13:07:00,axn,48.38
2024-03-15T13:08:00,axn,48.72
2024-03-15T13:09:00,axn,48.53
2024-03-15T13:10:00,axn,49.52
2024-03-15T13:11:00,axn,49.67
2024-03-15T13:12:00,axn,49.51
2024-03-15T13:13:00,axn,53.92
2024-03-15T13:14:00,axn,49.12
2024-03-15T13:15:00,axn,49.03
2024-03-15T13:16:00,axn,48.10
2024-03-15T13:17:00,axn,48.41
2024-03-15T13:18:00,axn,48.61